TimeAKDT,TemperatureF,Dew PointF,Humidity,Sea Level PressureIn,VisibilityMPH,Wind Direction,Wind SpeedMPH,Gust SpeedMPH,PrecipitationIn,Events,Conditions,WindDirDegrees,DateUTC
12:16 AM,32.0,30.2,93,29.71,3.0,Calm,Calm,-,0.01,,Mostly Cloudy,0,2013-03-13 08:16:00
12:36 AM,32.0,28.4,87,29.71,10.0,Calm,Calm,-,0.02,,Overcast,0,2013-03-13 08:36:00
3:16 AM,-9999,-9999,N/A,-9999,-9999.0,North,-9999.0,-,N/A,,Unknown,0,2013-03-13 11:16:00
3:36 AM,30.2,28.4,93,29.74,1.2,Calm,Calm,-,N/A,,Unknown,0,2013-03-13 11:36:00
3:56 AM,30.2,28.4,93,29.74,2.0,Calm,Calm,-,N/A,,Mostly Cloudy,0,2013-03-13 11:56:00
4:16 AM,30.2,28.4,93,29.74,4.0,Calm,Calm,-,N/A,,Mostly Cloudy,0,2013-03-13 12:16:00
4:36 AM,30.2,26.6,86,29.75,9.0,Calm,Calm,-,N/A,,Mostly Cloudy,0,2013-03-13 12:36:00
4:56 AM,30.2,26.6,86,29.75,10.0,Calm,Calm,-,0.02,,Overcast,0,2013-03-13 12:56:00
5:16 AM,30.2,26.6,86,29.76,10.0,Calm,Calm,-,N/A,,Overcast,0,2013-03-13 13:16:00
5:36 AM,30.2,26.6,86,29.76,9.0,Calm,Calm,-,0.01,,Overcast,0,2013-03-13 13:36:00
5:56 AM,30.2,24.8,80,29.77,5.0,Calm,Calm,-,0.01,,Overcast,0,2013-03-13 13:56:00
6:16 AM,30.2,26.6,86,29.77,5.0,Calm,Calm,-,N/A,,Overcast,0,2013-03-13 14:16:00
6:36 AM,30.2,26.6,86,29.78,5.0,Calm,Calm,-,N/A,,Overcast,0,2013-03-13 14:36:00
6:56 AM,28.4,26.6,93,29.78,1.5,Calm,Calm,-,N/A,,Overcast,0,2013-03-13 14:56:00
7:16 AM,28.4,26.6,93,29.78,1.5,Calm,Calm,-,N/A,,Overcast,0,2013-03-13 15:16:00
7:36 AM,28.4,26.6,93,29.79,1.5,Calm,Calm,-,N/A,,Overcast,0,2013-03-13 15:36:00
7:56 AM,30.2,26.6,86,29.80,1.5,Calm,Calm,-,0.01,,Overcast,0,2013-03-13 15:56:00
8:16 AM,30.2,26.6,86,29.81,1.5,Calm,Calm,-,0.01,,Overcast,0,2013-03-13 16:16:00
8:36 AM,30.2,26.6,86,29.82,4.0,Calm,Calm,-,0.01,,Overcast,0,2013-03-13 16:36:00
8:56 AM,30.2,26.6,86,29.82,7.0,Calm,Calm,-,0.01,,Overcast,0,2013-03-13 16:56:00
9:16 AM,30.2,26.6,86,29.83,7.0,Calm,Calm,-,N/A,,Overcast,0,2013-03-13 17:16:00
9:36 AM,30.2,26.6,86,29.84,7.0,Calm,Calm,-,N/A,,Overcast,0,2013-03-13 17:36:00
9:56 AM,30.2,26.6,86,29.85,7.0,Calm,Calm,-,N/A,,Overcast,0,2013-03-13 17:56:00
10:16 AM,30.2,24.8,80,29.85,7.0,Calm,Calm,-,N/A,,Overcast,0,2013-03-13 18:16:00
10:36 AM,30.2,24.8,80,29.86,7.0,Calm,Calm,-,N/A,,Overcast,0,2013-03-13 18:36:00
10:56 AM,30.2,24.8,80,29.86,7.0,Calm,Calm,-,N/A,,Overcast,0,2013-03-13 18:56:00
11:16 AM,30.2,24.8,80,29.87,7.0,Calm,Calm,-,N/A,,Overcast,0,2013-03-13 19:16:00
11:36 AM,30.2,24.8,80,29.88,7.0,Calm,Calm,-,0.01,,Overcast,0,2013-03-13 19:36:00
12:16 PM,32.0,26.6,80,29.90,10.0,Calm,Calm,-,N/A,,Overcast,0,2013-03-13 20:16:00
12:36 PM,30.2,24.8,80,29.90,10.0,Calm,Calm,-,0.01,,Overcast,0,2013-03-13 20:36:00
1:36 PM,30.2,24.8,80,29.91,10.0,Calm,Calm,-,N/A,,Mostly Cloudy,0,2013-03-13 21:36:00
1:56 PM,30.2,24.8,80,29.91,7.0,Calm,Calm,-,N/A,,Overcast,0,2013-03-13 21:56:00
2:16 PM,30.2,24.8,80,29.91,7.0,Calm,Calm,-,N/A,,Overcast,0,2013-03-13 22:16:00
2:52 PM,30.2,24.8,80,29.90,7.0,East,4.6,-,N/A,Snow,Snow Showers,80,2013-03-13 22:52:00
3:16 PM,32.0,24.8,75,29.91,7.0,Calm,Calm,-,N/A,,Mostly Cloudy,0,2013-03-13 23:16:00
3:36 PM,32.0,24.8,75,29.91,7.0,Calm,Calm,-,N/A,,Mostly Cloudy,0,2013-03-13 23:36:00
3:56 PM,32.0,24.8,75,29.91,10.0,Calm,Calm,-,N/A,,Mostly Cloudy,0,2013-03-13 23:56:00
4:16 PM,32.0,24.8,75,29.91,10.0,Calm,Calm,-,N/A,,Mostly Cloudy,0,2013-03-14 00:16:00
4:36 PM,32.0,24.8,75,29.90,10.0,Calm,Calm,-,N/A,,Mostly Cloudy,0,2013-03-14 00:36:00
4:56 PM,32.0,24.8,75,29.90,7.0,Calm,Calm,-,N/A,,Mostly Cloudy,0,2013-03-14 00:56:00
5:16 PM,32.0,24.8,75,29.89,7.0,Calm,Calm,-,N/A,,Mostly Cloudy,0,2013-03-14 01:16:00
5:36 PM,32.0,24.8,75,29.89,7.0,Calm,Calm,-,N/A,,Mostly Cloudy,0,2013-03-14 01:36:00
5:56 PM,32.0,24.8,75,29.89,10.0,Calm,Calm,-,N/A,,Mostly Cloudy,0,2013-03-14 01:56:00
6:16 PM,32.0,24.8,75,29.89,10.0,Calm,Calm,-,N/A,,Mostly Cloudy,0,2013-03-14 02:16:00
6:36 PM,30.2,26.6,86,29.90,10.0,Calm,Calm,-,N/A,,Mostly Cloudy,0,2013-03-14 02:36:00
6:56 PM,30.2,26.6,86,29.90,10.0,Calm,Calm,-,N/A,,Overcast,0,2013-03-14 02:56:00
7:16 PM,30.2,26.6,86,29.90,2.0,Calm,Calm,-,N/A,,Overcast,0,2013-03-14 03:16:00
7:36 PM,30.2,26.6,86,29.90,2.0,Calm,Calm,-,N/A,,Overcast,0,2013-03-14 03:36:00
7:56 PM,30.2,28.4,93,29.91,3.0,Calm,Calm,-,N/A,,Overcast,0,2013-03-14 03:56:00
8:16 PM,30.2,26.6,86,29.91,3.0,Calm,Calm,-,N/A,,Overcast,0,2013-03-14 04:16:00
8:36 PM,30.2,26.6,86,29.92,3.0,Calm,Calm,-,N/A,,Overcast,0,2013-03-14 04:36:00
8:56 PM,30.2,26.6,86,29.92,5.0,Calm,Calm,-,N/A,,Overcast,0,2013-03-14 04:56:00
9:16 PM,30.2,26.6,86,29.92,5.0,Calm,Calm,-,N/A,,Overcast,0,2013-03-14 05:16:00
9:36 PM,30.2,26.6,86,29.92,5.0,Calm,Calm,-,N/A,,Overcast,0,2013-03-14 05:36:00
9:56 PM,30.2,26.6,86,29.92,5.0,Calm,Calm,-,N/A,,Overcast,0,2013-03-14 05:56:00
10:16 PM,30.2,26.6,86,29.92,7.0,Calm,Calm,-,N/A,,Mostly Cloudy,0,2013-03-14 06:16:00
10:36 PM,30.2,26.6,86,29.92,10.0,Calm,Calm,-,N/A,,Overcast,0,2013-03-14 06:36:00
10:56 PM,30.2,26.6,86,29.92,1.8,Calm,Calm,-,N/A,,Mostly Cloudy,0,2013-03-14 06:56:00
11:16 PM,30.2,26.6,86,29.92,10.0,Calm,Calm,-,N/A,,Mostly Cloudy,0,2013-03-14 07:16:00
11:36 PM,30.2,26.6,86,29.92,10.0,Calm,Calm,-,N/A,,Overcast,0,2013-03-14 07:36:00
11:56 PM,30.2,24.8,80,29.92,10.0,Calm,Calm,-,N/A,,Overcast,0,2013-03-14 07:56:00